CAPE
0 0 192 220 223 176 125 105 69 41 33 26 90 49 71 21 9 0 11 29 22 28 59 0 0 0 0 32 50 37 9 26 18 5 0 16 20 19 18 8 8 3 1
0 72 193 168 165 240 212 139 93 54 45 8 106 113 61 46 13 17 30 22 70 118 60 25 23 22 56 71 44 20 50 54 26 16 37 27 42 15 23 5 15 16 13
15 179 237 133 132 187 288 141 113 60 44 15 28 86 25 7 3 5 97 103 91 78 39 62 102 96 107 111 92 91 92 72 58 54 45 50 20 15 0 6 17 20 14
39 231 246 185 149 143 98 60 42 4 1 14 19 54 13 3 1 78 105 152 244 213 193 187 196 208 208 182 159 157 177 134 80 93 77 78 41 7 5 2 4 33 25
138 242 218 189 107 49 10 18 31 0 0 4 4 7 41 45 43 53 66 122 230 358 371 367 337 321 440 409 260 161 96 88 75 52 55 83 78 24 1 0 0 35 17
169 124 128 131 62 8 15 5 33 5 0 3 10 49 48 16 18 19 33 45 50 123 160 228 249 211 213 185 147 104 56 57 63 69 55 54 36 65 49 12 17 33 10
109 160 58 34 5 5 21 0 37 31 11 11 48 26 21 27 31 20 53 51 46 63 100 89 115 126 116 106 56 57 28 26 35 37 58 67 50 21 48 55 32 18 5
4 41 3 21 23 19 0 9 16 36 15 40 72 56 42 49 47 57 54 54 63 72 58 67 64 83 82 71 78 81 59 51 24 52 55 58 73 45 23 34 58 47 4
1 0 0 0 10 0 10 0 1 53 40 20 41 38 33 23 30 40 44 39 27 41 35 29 34 15 25 51 59 62 81 76 48 45 52 29 17 67 37 36 72 43 1
0 1 0 6 6 3 2 0 0 18 19 16 36 41 38 19 23 20 25 25 35 18 37 34 8 8 19 24 35 22 29 70 68 35 40 15 20 52 55 66 41 16 0
0 2 2 0 0 0 0 0 0 0 0 0 1 16 17 33 34 45 35 28 40 33 39 34 16 32 24 47 44 37 59 24 19 5 26 32 43 67 67 47 18 1 2
0 0 0 0 0 0 0 0 0 0 0 0 0 0 0 0 0 0 0 7 108 101 79 74 59 44 49 49 42 51 62 51 49 64 113 64 83 96 58 59 29 4 2
0 0 0 0 0 0 0 0 0 0 0 0 0 0 0 0 0 0 0 0 0 3 8 10 17 70 132 46 61 71 61 41 60 106 79 105 112 115 68 6 21 9 11
0 0 0 0 0 0 0 0 0 0 0 0 0 0 0 0 0 0 0 0 0 0 5 5 12 5 6 7 14 22 45 51 50 101 116 103 95 45 54 10 7 1 0
0 0 0 0 0 0 0 0 0 0 0 0 0 0 0 0 0 0 0 0 0 0 0 0 0 0 7 4 3 4 22 68 90 115 107 93 83 75 9 5 0 0 0
0 0 0 0 0 0 0 0 0 0 0 0 0 0 0 0 0 0 0 0 0 0 0 0 0 0 0 6 0 0 11 66 150 109 115 68 63 13 0 0 0 0 0
0 0 0 0 0 0 0 0 0 0 0 0 0 0 0 0 0 0 0 0 0 0 0 0 0 0 0 0 0 0 8 26 73 62 56 56 11 11 3 0 0 0 0
0 0 0 0 0 0 0 0 0 0 0 0 0 0 0 0 0 0 0 0 0 0 0 0 0 0 0 0 0 0 12 55 35 67 129 55 60 2 0 6 11 5 0
0 0 0 0 0 0 0 0 0 0 0 0 0 0 0 0 0 0 0 0 0 0 0 0 0 0 0 0 0 0 3 25 62 73 88 22 41 0 0 3 29 36 2
0 0 0 0 0 0 0 0 0 0 0 0 0 0 0 0 0 0 0 0 0 0 0 0 0 0 0 0 0 0 0 1 35 70 48 31 1 4 24 47 29 35 18
0 0 0 0 0 0 0 0 0 0 0 0 0 0 0 0 0 0 0 0 0 0 0 0 0 0 0 0 0 0 0 0 2 45 38 49 30 14 51 0 37 57 22
0 0 0 0 0 0 0 0 0 0 0 0 0 0 0 0 0 0 0 0 0 0 0 0 0 0 0 0 0 0 0 1 1 17 82 96 102 55 25 5 76 54 20
0 0 0 0 0 0 0 0 0 0 0 0 0 0 0 0 0 0 0 0 0 0 0 0 0 0 0 0 0 0 0 1 0 3 44 61 64 72 45 15 49 17 20
0 0 0 0 0 0 0 0 0 0 0 0 0 0 0 0 0 0 0 0 0 0 0 0 0 0 0 0 0 0 0 4 13 12 27 51 97 31 10 11 0 26 6
0 0 0 0 0 0 0 0 0 0 0 0 0 0 0 0 0 0 0 0 0 0 0 0 0 0 0 3 10 1 0 27 24 27 84 115 73 41 1 1 4 3 18
0 0 0 0 0 0 0 0 0 0 0 0 0 0 0 0 0 0 0 0 0 0 0 0 0 0 0 0 0 1 14 8 42 27 21 68 10 0 8 1 0 15 1
CIN
-0 -0 -95 -94 -76 -74 -56 -50 -68 -85 -50 -29 -0 -15 -5 -0 -16 -0 -2 -0 -13 -21 -42 -0 -0 -0 -0 -131 -100 -92 -129 -94 -73 -84 -15 -23 -21 -31 -2 -0 -7 -7 -7
-0 -76 -79 -98 -111 -54 -41 -45 -31 -44 -33 -59 -0 -0 -7 -0 -0 -3 -9 -14 -15 -27 -39 -80 -94 -158 -97 -78 -94 -134 -110 -79 -74 -84 -32 -19 -7 -30 -6 -9 -7 -7 -4
-29 -78 -78 -87 -87 -38 -6 -32 -4 -35 -42 -78 -0 -0 -13 -0 -0 -12 -41 -28 -25 -38 -63 -106 -81 -93 -64 -65 -85 -94 -88 -71 -63 -50 -21 -6 -28 -32 -0 -10 -10 -4 -1
-13 -82 -51 -40 -16 -7 -9 -21 -16 -89 -28 -62 -16 -0 -0 -0 -10 -13 -35 -43 -31 -44 -41 -35 -28 -15 -27 -40 -45 -44 -48 -37 -32 -57 -43 -22 -22 -31 -8 -35 -53 -3 -4
-81 -57 -42 -23 -11 -19 -31 -38 -3 -0 -0 -101 -0 -0 -0 -0 -0 -6 -27 -26 -22 -12 -5 -2 -3 -15 -0 -1 -5 -49 -47 -26 -33 -18 -48 -50 -18 -6 -1 -0 -0 -13 -11
-45 -40 -32 -24 -13 -4 -0 -0 -17 -0 -23 -1 -0 -0 -0 -0 -0 -0 -32 -33 -26 -36 -38 -45 -46 -44 -41 -27 -45 -38 -5 -63 -64 -65 -43 -44 -55 -25 -5 -20 -6 -0 -0
-39 -14 -17 -13 -11 -16 -0 -0 -0 -0 -37 -0 -0 -0 -1 -12 -3 -5 -6 -8 -8 -12 -30 -48 -57 -49 -52 -46 -33 -58 -80 -59 -46 -44 -53 -53 -52 -13 -27 -4 -0 -0 -6
-0 -0 -0 -0 -0 -0 -0 -0 -0 -0 -0 -0 -0 -0 -0 -6 -0 -0 -3 -4 -8 -4 -6 -17 -46 -14 -23 -13 -22 -31 -46 -8 -39 -29 -28 -41 -47 -14 -47 -34 -1 -0 -4
-11 -0 -0 -0 -0 -0 -0 -0 -0 -6 -3 -0 -4 -1 -0 -0 -32 -48 -10 -10 -39 -88 -97 -98 -49 -27 -5 -21 -10 -20 -32 -38 -26 -21 -25 -38 -48 -0 -0 -25 -1 -6 -0
-0 -0 -0 -0 -1 -0 -0 -0 -0 -2 -0 -0 -0 -0 -24 -24 -32 -23 -16 -27 -53 -32 -63 -83 -14 -49 -29 -19 -41 -26 -22 -5 -11 -4 -4 -4 -24 -17 -0 -2 -6 -10 -0
-0 -0 -0 -0 -0 -0 -0 -0 -0 -0 -0 -0 -1 -8 -22 -17 -12 -11 -9 -7 -7 -4 -10 -19 -2 -6 -3 -28 -20 -9 -0 -0 -11 -3 -0 -7 -13 -1 -6 -0 -10 -1 -0
-0 -0 -0 -0 -0 -0 -0 -0 -0 -0 -0 -0 -0 -0 -0 -0 -0 -0 -4 -69 -8 -15 -40 -38 -35 -25 -31 -18 -14 -17 -24 -27 -34 -24 -9 -8 -1 -0 -0 -0 -9 -0 -0
-0 -0 -0 -0 -0 -0 -0 -0 -0 -0 -0 -0 -0 -0 -0 -0 -0 -0 -0 -0 -0 -0 -0 -0 -24 -14 -19 -28 -57 -64 -66 -75 -54 -26 -22 -2 -0 -0 -0 -0 -0 -0 -0
-0 -0 -0 -0 -0 -0 -0 -0 -0 -0 -0 -0 -0 -0 -0 -0 -0 -0 -0 -0 -0 -0 -0 -0 -0 -1 -0 -0 -8 -44 -45 -70 -74 -21 -0 -0 -0 -0 -0 -0 -0 -0 -0
-0 -0 -0 -0 -0 -0 -0 -0 -0 -0 -0 -0 -0 -0 -0 -0 -0 -0 -0 -0 -0 -0 -0 -0 -0 -0 -0 -0 -0 -0 -30 -15 -21 -33 -3 -1 -0 -0 -1 -0 -0 -0 -0
-0 -0 -0 -0 -0 -0 -0 -0 -0 -0 -0 -0 -0 -0 -0 -0 -0 -0 -0 -0 -0 -0 -0 -0 -0 -0 -0 -0 -0 -0 -4 -11 -1 -0 -2 -15 -0 -0 -0 -0 -0 -0 -0
-0 -0 -0 -0 -0 -0 -0 -0 -0 -0 -0 -0 -0 -0 -0 -0 -0 -0 -0 -0 -0 -0 -0 -0 -0 -0 -0 -0 -0 -0 -0 -1 -0 -0 -6 -0 -0 -0 -6 -1 -2 -0 -0
-0 -0 -0 -0 -0 -0 -0 -0 -0 -0 -0 -0 -0 -0 -0 -0 -0 -0 -0 -0 -0 -0 -0 -0 -0 -0 -0 -0 -0 -0 -1 -0 -0 -0 -0 -1 -0 -3 -0 -2 -0 -2 -0
-0 -0 -0 -0 -0 -0 -0 -0 -0 -0 -0 -0 -0 -0 -0 -0 -0 -0 -0 -0 -0 -0 -0 -0 -0 -0 -0 -0 -0 -0 -0 -1 -0 -0 -0 -42 -0 -0 -0 -0 -0 -3 -4
-0 -0 -0 -0 -0 -0 -0 -0 -0 -0 -0 -0 -0 -0 -0 -0 -0 -0 -0 -0 -0 -0 -0 -0 -0 -0 -0 -0 -0 -0 -0 -0 -1 -0 -1 -0 -0 -0 -3 -0 -0 -0 -9
-0 -0 -0 -0 -0 -0 -0 -0 -0 -0 -0 -0 -0 -0 -0 -0 -0 -0 -0 -0 -0 -0 -0 -0 -0 -0 -0 -0 -0 -0 -0 -0 -1 -2 -2 -3 -8 -0 -1 -0 -0 -0 -3
-0 -0 -0 -0 -0 -0 -0 -0 -0 -0 -0 -0 -0 -0 -0 -0 -0 -0 -0 -0 -0 -0 -0 -0 -0 -0 -0 -0 -0 -0 -0 -0 -0 -12 -0 -0 -0 -1 -5 -5 -0 -2 -9
-0 -0 -0 -0 -0 -0 -0 -0 -0 -0 -0 -0 -0 -0 -0 -0 -0 -0 -0 -0 -0 -0 -0 -0 -0 -0 -0 -0 -0 -0 -0 -3 -0 -0 -9 -3 -0 -0 -9 -3 -0 -12 -20
-0 -0 -0 -0 -0 -0 -0 -0 -0 -0 -0 -0 -0 -0 -0 -0 -0 -0 -0 -0 -0 -0 -0 -0 -0 -0 -0 -0 -0 -0 -3 -0 -4 -10 -7 -1 -0 -4 -10 -13 -0 -9 -21
-0 -0 -0 -0 -0 -0 -0 -0 -0 -0 -0 -0 -0 -0 -0 -0 -0 -0 -0 -0 -0 -0 -0 -0 -0 -0 -0 -0 -2 -1 -0 -0 -0 -5 -0 -0 -0 -0 -18 -25 -27 -9 -24
-0 -0 -0 -0 -0 -0 -0 -0 -0 -0 -0 -0 -0 -0 -0 -0 -0 -0 -0 -0 -0 -0 -0 -0 -0 -0 -0 -1 -0 -5 -0 -3 -0 -4 -4 -0 -2 -0 -5 -5 -0 -8 -0
Wind_Speed
nan nan 63 64 57 51 50 46 nan nan nan nan nan nan nan nan nan nan nan nan nan nan nan nan nan nan nan nan nan nan nan nan nan nan nan nan nan nan nan nan nan nan nan
nan nan 62 60 59 52 45 48 nan nan nan nan 23 40 nan nan nan nan nan nan nan 52 nan nan nan nan nan nan nan nan nan nan nan nan nan nan nan nan nan nan nan nan nan
nan 53 55 54 54 50 41 44 35 nan nan nan nan nan nan nan nan nan nan 68 nan nan nan nan 52 nan 52 46 nan nan nan nan nan nan nan nan nan nan nan nan nan nan nan
nan 32 32 36 36 35 nan nan nan nan nan nan nan nan nan nan nan nan 68 66 70 64 63 58 57 55 55 51 51 51 53 44 nan nan nan nan nan nan nan nan nan nan nan
17 14 11 17 22 nan nan nan nan nan nan nan nan nan nan nan nan nan nan 52 57 58 62 63 62 61 58 58 55 30 nan nan nan nan nan nan nan nan nan nan nan nan nan
20 13 17 18 nan nan nan nan nan nan nan nan nan nan nan nan nan nan nan nan nan 45 41 43 46 43 45 40 41 43 nan nan nan nan nan nan nan nan nan nan nan nan nan
21 20 nan nan nan nan nan nan nan nan nan nan nan nan nan nan nan nan nan nan nan nan 42 nan 43 39 46 40 nan nan nan nan nan nan nan nan nan nan nan nan nan nan nan
nan nan nan nan nan nan nan nan nan nan nan nan nan nan nan nan nan nan nan nan nan nan nan nan nan nan nan nan nan nan nan nan nan nan nan nan nan nan nan nan nan nan nan
nan nan nan nan nan nan nan nan nan nan nan nan nan nan nan nan nan nan nan nan nan nan nan nan nan nan nan nan nan nan nan nan nan nan nan nan nan nan nan nan nan nan nan
nan nan nan nan nan nan nan nan nan nan nan nan nan nan nan nan nan nan nan nan nan nan nan nan nan nan nan nan nan nan nan nan nan nan nan nan nan nan nan nan nan nan nan
nan nan nan nan nan nan nan nan nan nan nan nan nan nan nan nan nan nan nan nan nan nan nan nan nan nan nan nan nan nan nan nan nan nan nan nan nan nan nan nan nan nan nan
nan nan nan nan nan nan nan nan nan nan nan nan nan nan nan nan nan nan nan nan 18 23 nan nan nan nan nan nan nan nan nan nan nan nan 33 nan nan nan nan nan nan nan nan
nan nan nan nan nan nan nan nan nan nan nan nan nan nan nan nan nan nan nan nan nan nan nan nan nan nan 32 nan nan nan nan nan nan 38 nan 40 40 44 nan nan nan nan nan
nan nan nan nan nan nan nan nan nan nan nan nan nan nan nan nan nan nan nan nan nan nan nan nan nan nan nan nan nan nan nan nan nan 49 48 47 nan nan nan nan nan nan nan
nan nan nan nan nan nan nan nan nan nan nan nan nan nan nan nan nan nan nan nan nan nan nan nan nan nan nan nan nan nan nan nan nan 53 56 nan nan nan nan nan nan nan nan
nan nan nan nan nan nan nan nan nan nan nan nan nan nan nan nan nan nan nan nan nan nan nan nan nan nan nan nan nan nan nan nan 57 58 59 nan nan nan nan nan nan nan nan
nan nan nan nan nan nan nan nan nan nan nan nan nan nan nan nan nan nan nan nan nan nan nan nan nan nan nan nan nan nan nan nan nan nan nan nan nan nan nan nan nan nan nan
nan nan nan nan nan nan nan nan nan nan nan nan nan nan nan nan nan nan nan nan nan nan nan nan nan nan nan nan nan nan nan nan nan nan 59 nan nan nan nan nan nan nan nan
nan nan nan nan nan nan nan nan nan nan nan nan nan nan nan nan nan nan nan nan nan nan nan nan nan nan nan nan nan nan nan nan nan nan nan nan nan nan nan nan nan nan nan
nan nan nan nan nan nan nan nan nan nan nan nan nan nan nan nan nan nan nan nan nan nan nan nan nan nan nan nan nan nan nan nan nan nan nan nan nan nan nan nan nan nan nan
nan nan nan nan nan nan nan nan nan nan nan nan nan nan nan nan nan nan nan nan nan nan nan nan nan nan nan nan nan nan nan nan nan nan nan nan nan nan nan nan nan nan nan
nan nan nan nan nan nan nan nan nan nan nan nan nan nan nan nan nan nan nan nan nan nan nan nan nan nan nan nan nan nan nan nan nan nan nan nan 49 nan nan nan nan nan nan
nan nan nan nan nan nan nan nan nan nan nan nan nan nan nan nan nan nan nan nan nan nan nan nan nan nan nan nan nan nan nan nan nan nan nan nan nan nan nan nan nan nan nan
nan nan nan nan nan nan nan nan nan nan nan nan nan nan nan nan nan nan nan nan nan nan nan nan nan nan nan nan nan nan nan nan nan nan nan nan nan nan nan nan nan nan nan
nan nan nan nan nan nan nan nan nan nan nan nan nan nan nan nan nan nan nan nan nan nan nan nan nan nan nan nan nan nan nan nan nan nan nan 62 nan nan nan nan nan nan nan
nan nan nan nan nan nan nan nan nan nan nan nan nan nan nan nan nan nan nan nan nan nan nan nan nan nan nan nan nan nan nan nan nan nan nan nan nan nan nan nan nan nan nan
Wind_Direction
nan nan 235 235 236 244 250 256 nan nan nan nan nan nan nan nan nan nan nan nan nan nan nan nan nan nan nan nan nan nan nan nan nan nan nan nan nan nan nan nan nan nan nan
nan nan 233 235 236 238 249 258 nan nan nan nan 284 246 nan nan nan nan nan nan nan 237 nan nan nan nan nan nan nan nan nan nan nan nan nan nan nan nan nan nan nan nan nan
nan 231 234 229 233 236 244 255 255 nan nan nan nan nan nan nan nan nan nan 238 nan nan nan nan 243 nan 250 251 nan nan nan nan nan nan nan nan nan nan nan nan nan nan nan
nan 213 224 226 231 231 nan nan nan nan nan nan nan nan nan nan nan nan 244 238 233 237 238 239 245 245 245 251 250 252 248 258 nan nan nan nan nan nan nan nan nan nan nan
137 169 192 215 214 nan nan nan nan nan nan nan nan nan nan nan nan nan nan 225 231 243 238 241 242 247 245 247 252 230 nan nan nan nan nan nan nan nan nan nan nan nan nan
132 147 167 188 nan nan nan nan nan nan nan nan nan nan nan nan nan nan nan nan nan 224 227 234 241 242 244 250 253 245 nan nan nan nan nan nan nan nan nan nan nan nan nan
133 146 nan nan nan nan nan nan nan nan nan nan nan nan nan nan nan nan nan nan nan nan 218 nan 237 244 246 239 nan nan nan nan nan nan nan nan nan nan nan nan nan nan nan
nan nan nan nan nan nan nan nan nan nan nan nan nan nan nan nan nan nan nan nan nan nan nan nan nan nan nan nan nan nan nan nan nan nan nan nan nan nan nan nan nan nan nan
nan nan nan nan nan nan nan nan nan nan nan nan nan nan nan nan nan nan nan nan nan nan nan nan nan nan nan nan nan nan nan nan nan nan nan nan nan nan nan nan nan nan nan
nan nan nan nan nan nan nan nan nan nan nan nan nan nan nan nan nan nan nan nan nan nan nan nan nan nan nan nan nan nan nan nan nan nan nan nan nan nan nan nan nan nan nan
nan nan nan nan nan nan nan nan nan nan nan nan nan nan nan nan nan nan nan nan nan nan nan nan nan nan nan nan nan nan nan nan nan nan nan nan nan nan nan nan nan nan nan
nan nan nan nan nan nan nan nan nan nan nan nan nan nan nan nan nan nan nan nan 258 266 nan nan nan nan nan nan nan nan nan nan nan nan 251 nan nan nan nan nan nan nan nan
nan nan nan nan nan nan nan nan nan nan nan nan nan nan nan nan nan nan nan nan nan nan nan nan nan nan 248 nan nan nan nan nan nan 260 nan 260 269 268 nan nan nan nan nan
nan nan nan nan nan nan nan nan nan nan nan nan nan nan nan nan nan nan nan nan nan nan nan nan nan nan nan nan nan nan nan nan nan 258 262 264 nan nan nan nan nan nan nan
nan nan nan nan nan nan nan nan nan nan nan nan nan nan nan nan nan nan nan nan nan nan nan nan nan nan nan nan nan nan nan nan nan 258 261 nan nan nan nan nan nan nan nan
nan nan nan nan nan nan nan nan nan nan nan nan nan nan nan nan nan nan nan nan nan nan nan nan nan nan nan nan nan nan nan nan 259 258 258 nan nan nan nan nan nan nan nan
nan nan nan nan nan nan nan nan nan nan nan nan nan nan nan nan nan nan nan nan nan nan nan nan nan nan nan nan nan nan nan nan nan nan nan nan nan nan nan nan nan nan nan
nan nan nan nan nan nan nan nan nan nan nan nan nan nan nan nan nan nan nan nan nan nan nan nan nan nan nan nan nan nan nan nan nan nan 260 nan nan nan nan nan nan nan nan
nan nan nan nan nan nan nan nan nan nan nan nan nan nan nan nan nan nan nan nan nan nan nan nan nan nan nan nan nan nan nan nan nan nan nan nan nan nan nan nan nan nan nan
nan nan nan nan nan nan nan nan nan nan nan nan nan nan nan nan nan nan nan nan nan nan nan nan nan nan nan nan nan nan nan nan nan nan nan nan nan nan nan nan nan nan nan
nan nan nan nan nan nan nan nan nan nan nan nan nan nan nan nan nan nan nan nan nan nan nan nan nan nan nan nan nan nan nan nan nan nan nan nan nan nan nan nan nan nan nan
nan nan nan nan nan nan nan nan nan nan nan nan nan nan nan nan nan nan nan nan nan nan nan nan nan nan nan nan nan nan nan nan nan nan nan nan 256 nan nan nan nan nan nan
nan nan nan nan nan nan nan nan nan nan nan nan nan nan nan nan nan nan nan nan nan nan nan nan nan nan nan nan nan nan nan nan nan nan nan nan nan nan nan nan nan nan nan
nan nan nan nan nan nan nan nan nan nan nan nan nan nan nan nan nan nan nan nan nan nan nan nan nan nan nan nan nan nan nan nan nan nan nan nan nan nan nan nan nan nan nan
nan nan nan nan nan nan nan nan nan nan nan nan nan nan nan nan nan nan nan nan nan nan nan nan nan nan nan nan nan nan nan nan nan nan nan 242 nan nan nan nan nan nan nan
nan nan nan nan nan nan nan nan nan nan nan nan nan nan nan nan nan nan nan nan nan nan nan nan nan nan nan nan nan nan nan nan nan nan nan nan nan nan nan nan nan nan nan